Home   Weather   Bristol   Past weeks
Flag for United Kingdom

Past Weather in Bristol, England, United Kingdom — Yesterday and Last 2 Weeks

Now
46 °F

Passing clouds.


Feels Like: 41 °F
Forecast: 48 / 54 °F
Wind: 10 mph from Southwest

Location: Bristol / Lulsgate

Current Time: Nov 13, 2018 at 2:45:59 am

Latest Report: Nov 13, 2018 at 1:50 am


Visibility: N/A

Pressure: 29.89 "Hg

Humidity: 93%

Dew Point: 45 °F

Location of BristolLocation

Past Weather in Bristol — Graph

°F

Bristol Temperature Yesterday

Maximum temperature yesterday: 55 °F (at 1:50 pm)
Minimum temperature yesterday: 46 °F (at 2:50 am)
Average temperature yesterday: 49 °F

High & Low Weather Summary for the Past Weeks

 TemperatureHumidityPressure
High55 °F (Nov 3, 11:50 am)100% (Oct 29, 1:20 am)30.33 "Hg (Oct 29, 1:20 am)
Low32 °F (Oct 29, 3:50 am)58% (Nov 2, 2:20 pm)29.18 "Hg (Nov 7, 3:50 am)
Average47 °F92%29.66 "Hg
* Reported Oct 29 1:20 am — Nov 13 1:20 am, Bristol. Weather by CustomWeather, © 2018

Note: Actual official high and low records may vary slightly from our data, if they occured in-between our weather recording intervals... More about our weather records

Advertising

Bristol Weather History for the Previous 24 Hours

Scroll right to see more
 ConditionsComfort  
Time TempWeatherWind HumidityBarometerVisibility
1:20 am
Tue, Nov 13
46 °FPassing clouds.9 mph93%29.89 "HgN/A
12:50 am46 °FPassing clouds.10 mph93%29.89 "HgN/A
12:20 am46 °FPassing clouds.13 mph100%29.86 "HgN/A
11:50 pm
Mon, Nov 12
46 °FPassing clouds.9 mph100%29.86 "HgN/A
11:20 pm46 °FLight rain. Partly cloudy.12 mph100%29.86 "HgN/A
10:50 pm46 °FLight rain. Passing clouds.14 mph100%29.86 "HgN/A
10:20 pm46 °FCool.13 mph93%29.83 "HgN/A
9:50 pm46 °FCool.14 mph93%29.83 "HgN/A
9:20 pm46 °FCool.13 mph93%29.80 "HgN/A
8:50 pm46 °FCool.12 mph93%29.80 "HgN/A
8:20 pm46 °FPassing clouds.15 mph93%29.80 "HgN/A
7:50 pm46 °FLight rain. Passing clouds.16 mph100%29.80 "HgN/A
7:20 pm48 °FHeavy rain. Passing clouds.20 mph94%29.80 "HgN/A
6:50 pm50 °FLight rain. Passing clouds.13 mph94%29.80 "HgN/A
6:20 pm48 °FCool.14 mph94%29.80 "HgN/A
5:50 pm48 °FCool.14 mph100%29.77 "HgN/A
5:20 pm48 °FThundershowers. Passing clouds.13 mph94%29.77 "HgN/A
4:50 pm50 °FPassing clouds.15 mph88%29.77 "HgN/A
4:20 pm50 °FPassing clouds.14 mph88%29.77 "HgN/A
3:50 pm52 °FSprinkles. Scattered clouds.16 mph88%29.77 "HgN/A
3:20 pm52 °FScattered showers. Scattered clouds.16 mph82%29.74 "HgN/A
2:50 pm54 °FScattered clouds.14 mph77%29.74 "HgN/A
2:20 pm54 °FPassing clouds.18 mph77%29.74 "HgN/A
1:50 pm55 °FCool.16 mph72%29.74 "HgN/A
1:20 pm54 °FCool.17 mph82%29.74 "HgN/A
12:50 pm54 °FCool.16 mph82%29.74 "HgN/A
12:20 pm52 °FPassing clouds.14 mph88%29.74 "HgN/A
11:50 am52 °FScattered showers. Passing clouds.14 mph82%29.74 "HgN/A
11:20 am52 °FPassing clouds.14 mph88%29.74 "HgN/A
10:50 am52 °FScattered showers. Passing clouds.12 mph88%29.74 "HgN/A
10:20 am52 °FPassing clouds.13 mph94%29.74 "HgN/A
9:50 am52 °FCool.12 mph94%29.74 "HgN/A
9:20 am52 °FCool.9 mph88%29.74 "HgN/A
8:50 am50 °FCool.8 mph94%29.74 "HgN/A
8:20 am50 °FPassing clouds.8 mph94%29.71 "HgN/A
7:50 am48 °FPassing clouds.7 mph100%29.71 "HgN/A
7:20 am48 °FCool.7 mph100%29.71 "HgN/A
6:50 am48 °FCool.6 mph100%29.68 "HgN/A
6:20 am48 °FCool.7 mph100%29.68 "HgN/A
5:50 am48 °FCool.7 mph100%29.68 "HgN/A
5:20 am48 °FPassing clouds.3 mph100%29.68 "HgN/A
4:50 am48 °FPassing clouds.2 mph100%29.68 "HgN/A
4:20 am48 °FCool.3 mph94%29.65 "HgN/A
3:50 am48 °FCool.5 mph94%29.65 "HgN/A
3:20 am48 °FCool.3 mph100%29.65 "HgN/A
2:50 am46 °FCool.3 mph100%29.65 "HgN/A
2:20 am48 °FCool.5 mph94%29.65 "HgN/A
Weather by CustomWeather, © 2018

See weather overview